GW5308 Weather Reports


time (UTC)temp
C
wind
direction
speed
KPH
gust
KPH
rain 1hr
cm
rain 24hr
cm
rain mn
cm
humidity
%
barometer
mb
20260902174020 32 102 0.0 9.7 0.00 0.18 0.18 78 1014.4
20260902173521 32 296 1.6 8.0 0.00 0.18 0.18 78 1014.4
20260902173046 32 83 3.2 9.7 0.00 0.18 0.18 80 1014.6
20260902172526 31 311 0.0 11.3 0.00 0.18 0.18 82 1014.6
20260902172021 31 25 3.2 11.3 0.00 0.18 0.18 80 1014.7
20260902171540 31 12 0.0 4.8 0.00 0.18 0.18 83 1014.7
20260902171023 31 0 0.0 6.4 0.00 0.18 0.18 84 1014.8
20260902170522 31 29 1.6 6.4 0.00 0.18 0.18 81 1015.0
20260902170041 31 0 0.0 4.8 0.00 0.18 0.18 82 1014.9
20260902165520 31 14 0.0 4.8 0.00 0.66 0.18 81 1014.9
20260902165021 31 0 0.0 4.8 0.00 0.66 0.18 84 1014.9
20260902164541 31 80 0.0 6.4 0.00 0.66 0.18 82 1014.9
20260902164019 31 0 0.0 6.4 0.00 0.66 0.18 83 1014.9
20260902163523 30 292 1.6 6.4 0.00 0.66 0.18 84 1015.1
20260902163044 30 4 0.0 6.4 0.00 0.66 0.18 88 1015.1
20260902162521 30 25 1.6 6.4 0.00 0.66 0.18 86 1015.1
20260902162022 30 78 0.0 4.8 0.03 0.66 0.18 89 1015.1
20260902161543 30 0 0.0 4.8 0.03 0.66 0.18 92 1015.2
20260902161020 29 0 0.0 3.2 0.03 0.66 0.18 95 1015.3
20260902160525 28 0 0.0 3.2 0.03 0.66 0.18 94 1015.5
20260902160038 28 352 0.0 4.8 0.03 0.66 0.18 95 1015.6
20260902155519 28 0 0.0 4.8 0.03 0.71 0.18 95 1015.7
20260902155020 28 349 0.0 4.8 0.03 0.71 0.18 95 1015.7
20260902154539 28 0 0.0 4.8 0.03 0.71 0.18 95 1015.8
20260902154019 28 109 0.0 4.8 0.03 0.71 0.18 97 1015.7
20260902153526 27 0 0.0 3.2 0.03 0.71 0.18 99 1015.7
20260902153044 27 0 0.0 4.8 0.03 0.71 0.18 97 1015.8
20260902152520 27 58 0.0 12.9 0.03 0.71 0.18 96 1015.9
20260902152021 28 0 1.6 14.5 0.00 0.69 0.15 94 1016.0
20260902151547 28 0 3.2 14.5 0.05 0.69 0.15 94 1015.7
20260902151020 28 0 0.0 8.0 0.13 0.69 0.15 94 1015.6
20260902150521 28 97 1.6 8.0 0.13 0.69 0.15 92 1015.6
20260902150040 28 0 0.0 8.0 0.15 0.69 0.15 96 1015.7
20260902145519 28 23 0.0 4.8 0.15 0.69 0.15 95 1015.7
20260902145021 28 0 0.0 3.2 0.15 0.69 0.15 96 1015.7
20260902144538 28 270 0.0 4.8 0.15 0.69 0.15 97 1015.8
20260902144019 28 28 0.0 4.8 0.15 0.69 0.15 97 1015.7
20260902143524 27 0 0.0 4.8 0.15 0.69 0.15 98 1015.8
20260902143041 27 0 0.0 3.2 0.15 0.69 0.15 99 1015.9
20260902142523 27 0 0.0 1.6 0.15 0.69 0.15 100 1015.8
20260902142020 26 0 0.0 4.8 0.15 0.69 0.15 100 1015.9
20260902141544 26 349 0.0 6.4 0.08 0.61 0.08 99 1016.0
20260902141020 26 0 0.0 9.7 0.03 0.56 0.03 97 1016.0
20260902140520 27 317 0.0 11.3 0.03 0.56 0.03 95 1015.9
20260902140037 27 319 1.6 11.3 0.00 0.53 0.00 94 1015.9
20260902135521 28 17 0.0 6.4 0.00 0.53 0.00 94 1015.7
20260902135019 28 13 0.0 8.0 0.00 0.53 0.00 93 1015.5
20260902134543 28 106 1.6 8.0 0.00 0.53 0.00 93 1015.4
20260902134022 28 0 0.0 4.8 0.00 0.53 0.00 93 1015.4
20260902133521 28 63 1.6 4.8 0.00 0.53 0.00 92 1015.6
20260902133039 28 0 0.0 6.4 0.00 0.53 0.00 93 1015.6
20260902132524 28 357 1.6 6.4 0.00 0.53 0.00 93 1015.7
20260902132020 28 0 0.0 4.8 0.00 0.53 0.00 95 1015.8
20260902131543 27 0 0.0 3.2 0.00 0.53 0.00 96 1015.8
20260902131020 27 317 0.0 4.8 0.00 0.53 0.00 97 1015.8
20260902130525 26 335 0.0 6.4 0.00 0.53 0.00 99 1015.8
20260902130041 26 328 1.6 6.4 0.00 0.53 0.00 100 1015.8
20260902125520 26 280 1.6 8.0 0.00 0.53 0.00 100 1015.7
20260902125022 26 342 1.6 8.0 0.00 0.53 0.00 100 1015.7
20260902124540 26 0 0.0 0.0 0.00 0.53 0.00 100 1015.7
20260902124024 25 0 0.0 0.0 0.00 0.53 0.00 100 1015.6
20260902123521 25 0 0.0 0.0 0.00 0.53 0.00 100 1015.5
20260902123041 25 0 0.0 0.0 0.00 0.53 0.00 100 1015.5
20260902122524 25 0 0.0 0.0 0.00 0.53 0.00 100 1015.5
20260902122019 25 0 0.0 0.0 0.00 0.53 0.00 100 1015.5
20260902121547 25 0 0.0 0.0 0.00 0.53 0.00 100 1015.5
20260902121020 25 0 0.0 0.0 0.00 0.53 0.00 100 1015.5
20260902120519 25 0 0.0 0.0 0.00 0.53 0.00 100 1015.5
20260902120043 25 0 0.0 1.6 0.00 0.53 0.00 100 1015.5
20260902115550 24 0 0.0 1.6 0.00 0.53 0.00 100 1015.4
20260902115018 24 0 0.0 0.0 0.00 0.53 0.00 100 1015.3
20260902114542 24 0 0.0 0.0 0.00 0.53 0.00 100 1015.4
20260902114017 24 0 0.0 0.0 0.00 0.53 0.00 100 1015.2
20260902113520 24 0 0.0 0.0 0.00 0.53 0.00 100 1015.2
20260902113036 23 0 0.0 0.0 0.00 0.53 0.00 100 1015.2
20260902112521 23 0 0.0 0.0 0.00 0.53 0.00 100 1015.2
20260902112021 23 0 0.0 0.0 0.00 0.53 0.00 100 1015.1
20260902111537 23 0 0.0 0.0 0.00 0.53 0.00 100 1015.1
20260902111019 23 0 0.0 0.0 0.00 0.53 0.00 100 1015.2
20260902110520 23 0 0.0 0.0 0.00 0.53 0.00 100 1015.1
20260902110041 23 0 0.0 0.0 0.00 0.53 0.00 100 1015.1
20260902105519 23 0 0.0 0.0 0.00 0.53 0.00 100 1015.2
20260902105019 23 0 0.0 0.0 0.00 0.53 0.00 100 1015.0
20260902104600 23 0 0.0 0.0 0.00 0.53 0.00 100 1015.0
20260902104019 23 0 0.0 0.0 0.00 0.53 0.00 100 1014.9
20260902103523 23 0 0.0 0.0 0.00 0.53 0.00 100 1014.9
20260902103038 23 0 0.0 0.0 0.00 0.53 0.00 100 1014.8
20260902102521 23 0 0.0 0.0 0.00 0.53 0.00 100 1014.8
20260902102020 23 0 0.0 0.0 0.00 0.53 0.00 100 1014.8
20260902101534 23 0 0.0 0.0 0.00 0.53 0.00 100 1014.8
20260902101019 23 0 0.0 0.0 0.00 0.53 0.00 100 1014.8
20260902100520 23 0 0.0 0.0 0.00 0.53 0.00 100 1014.7
20260902100047 23 0 0.0 0.0 0.00 0.53 0.00 100 1014.6
20260902095520 23 0 0.0 0.0 0.00 0.53 0.00 100 1014.5
20260902095019 23 0 0.0 0.0 0.00 0.53 0.00 100 1014.5
20260902094535 23 0 0.0 0.0 0.00 0.53 0.00 100 1014.4
20260902094021 23 0 0.0 0.0 0.00 0.53 0.00 100 1014.4
20260902093523 23 0 0.0 0.0 0.00 0.53 0.00 100 1014.3
20260902093037 23 0 0.0 0.0 0.00 0.53 0.00 100 1014.3
20260902092519 23 0 0.0 0.0 0.00 0.53 0.00 100 1014.3
20260902092026 23 0 0.0 0.0 0.00 0.53 0.00 100 1014.1
20260902091539 23 0 0.0 0.0 0.00 0.53 0.00 100 1014.1
20260902091019 23 0 0.0 0.0 0.00 0.53 0.00 100 1014.0
20260902090518 23 0 0.0 0.0 0.00 0.53 0.00 100 1014.0
20260902090036 24 0 0.0 0.0 0.00 0.53 0.00 100 1013.9
20260902085519 23 0 0.0 0.0 0.00 0.53 0.00 100 1013.9
20260902085021 23 0 0.0 1.6 0.00 0.53 0.00 100 1013.9
20260902084541 23 0 0.0 1.6 0.00 0.53 0.00 100 1014.0
20260902084022 23 0 0.0 1.6 0.00 0.53 0.00 100 1014.1
20260902083521 23 0 0.0 0.0 0.00 0.53 0.00 100 1014.1
20260902083036 23 0 0.0 0.0 0.00 0.53 0.00 100 1014.1
20260902082519 23 0 0.0 0.0 0.00 0.53 0.00 100 1014.1
20260902082023 23 0 0.0 0.0 0.00 0.53 0.00 100 1014.2
20260902081605 23 0 0.0 0.0 0.00 0.53 0.00 100 1014.1
20260902081023 23 0 0.0 0.0 0.00 0.53 0.00 100 1014.1
20260902080521 23 0 0.0 0.0 0.00 0.53 0.00 100 1014.3
20260902080053 23 0 0.0 0.0 0.00 0.53 0.00 100 1014.2
20260902075520 23 0 0.0 0.0 0.00 0.53 0.00 100 1014.3
20260902075019 23 0 0.0 0.0 0.00 0.53 0.00 100 1014.3
20260902074544 23 0 0.0 0.0 0.00 0.53 0.00 100 1014.3
20260902074021 23 0 0.0 0.0 0.00 0.53 0.00 100 1014.4
20260902073520 23 0 0.0 0.0 0.00 0.53 0.00 100 1014.4
20260902073039 23 0 0.0 0.0 0.00 0.53 0.00 100 1014.4
20260902072526 23 0 0.0 0.0 0.00 0.53 0.00 100 1014.3
20260902072023 23 0 0.0 0.0 0.00 0.53 0.00 100 1014.3
20260902071540 23 0 0.0 0.0 0.00 0.53 0.00 100 1014.2
20260902071021 23 0 0.0 0.0 0.00 0.53 0.00 100 1014.4
20260902070524 23 0 0.0 0.0 0.00 0.53 0.00 100 1014.5
20260902070043 23 0 0.0 0.0 0.00 0.53 0.00 100 1014.5
20260902065523 23 0 0.0 0.0 0.00 0.53 0.00 100 1014.5
20260902065021 23 0 0.0 0.0 0.00 0.53 0.00 100 1014.5
20260902064540 23 0 0.0 0.0 0.00 0.53 0.00 100 1014.5
20260902064023 23 0 0.0 0.0 0.00 0.53 0.00 100 1014.5
20260902063519 23 0 0.0 0.0 0.00 0.53 0.00 100 1014.6
20260902063056 23 0 0.0 0.0 0.00 0.53 0.00 100 1014.7
20260902062524 23 0 0.0 0.0 0.00 0.53 0.00 100 1014.7
20260902062021 23 0 0.0 0.0 0.00 0.53 0.00 100 1014.7
20260902061545 23 0 0.0 0.0 0.00 0.53 0.00 100 1014.7
20260902061035 23 0 0.0 0.0 0.00 0.53 0.00 100 1014.5
20260902060520 23 0 0.0 0.0 0.00 0.53 0.00 100 1014.6
20260902060054 23 0 0.0 0.0 0.00 0.53 0.00 100 1014.6
20260902055521 23 0 0.0 0.0 0.00 0.53 0.00 100 1014.6
20260902055020 23 0 0.0 0.0 0.00 0.53 0.00 100 1014.5
20260902054543 23 0 0.0 0.0 0.00 0.53 0.00 100 1014.6
20260902054020 23 0 0.0 0.0 0.00 0.53 0.00 100 1014.7
20260902053519 23 0 0.0 0.0 0.00 0.53 0.00 100 1014.6
20260902053042 23 0 0.0 0.0 0.00 0.53 0.00 100 1014.7
20260902052519 23 0 0.0 0.0 0.00 0.53 0.00 100 1014.7
20260902052018 23 0 0.0 0.0 0.00 0.53 0.00 100 1014.8
20260902051537 23 0 0.0 0.0 0.00 0.53 0.00 100 1014.7
20260902051020 23 0 0.0 0.0 0.00 0.53 0.00 100 1014.7
20260902050521 23 0 0.0 0.0 0.00 0.53 0.00 100 1014.7
20260902050036 23 0 0.0 0.0 0.00 0.53 0.00 100 1014.6
20260902045518 23 0 0.0 0.0 0.00 0.53 0.00 100 1014.7
20260902045019 23 0 0.0 0.0 0.00 0.53 0.00 100 1014.8
20260902044545 23 0 0.0 0.0 0.00 0.53 0.00 100 1014.8
20260902044022 23 0 0.0 0.0 0.00 0.53 0.00 100 1014.8
20260902043520 23 0 0.0 0.0 0.00 0.53 0.00 100 1014.9
20260902043041 23 0 0.0 0.0 0.00 0.53 0.00 100 1014.9
20260902042519 23 0 0.0 0.0 0.00 0.53 0.00 100 1014.9
20260902042017 23 0 0.0 0.0 0.00 0.53 0.00 100 1015.0
20260902041539 23 0 0.0 0.0 0.00 0.53 0.00 100 1015.0
20260902041020 23 0 0.0 0.0 0.00 0.53 0.00 100 1015.0
20260902040521 23 0 0.0 0.0 0.00 0.53 0.00 100 1015.1
20260902040037 23 0 0.0 0.0 0.00 0.53 0.00 100 1015.1
20260902035518 23 0 0.0 0.0 0.00 0.53 0.53 100 1015.2
20260902035019 23 0 0.0 0.0 0.00 0.53 0.53 100 1015.2
20260902034537 23 0 0.0 0.0 0.00 0.53 0.53 100 1015.2
20260902034019 23 0 0.0 0.0 0.00 0.53 0.53 100 1015.3
20260902033520 23 0 0.0 0.0 0.00 0.53 0.53 100 1015.4
20260902033037 23 0 0.0 0.0 0.00 0.53 0.53 100 1015.4
20260902032521 24 0 0.0 0.0 0.00 0.53 0.53 100 1015.5
20260902032024 24 0 0.0 0.0 0.00 0.53 0.53 100 1015.5
20260902031542 24 0 0.0 0.0 0.00 0.53 0.53 100 1015.5
20260902031020 24 0 0.0 0.0 0.00 0.53 0.53 100 1015.5
20260902030521 24 0 0.0 0.0 0.00 0.53 0.53 100 1015.4
20260902030038 24 0 0.0 0.0 0.00 0.53 0.53 100 1015.5
20260902025521 24 0 0.0 0.0 0.00 0.53 0.53 100 1015.6
20260902025020 24 0 0.0 0.0 0.00 0.53 0.53 100 1015.6
20260902024537 24 0 0.0 0.0 0.00 0.53 0.53 100 1015.6
20260902024019 24 0 0.0 0.0 0.00 0.53 0.53 100 1015.8
20260902023519 24 0 0.0 0.0 0.00 0.53 0.53 100 1015.7
20260902023040 24 0 0.0 0.0 0.00 0.53 0.53 100 1015.8
20260902022520 24 0 0.0 0.0 0.00 0.53 0.53 100 1015.8
20260902022019 24 0 0.0 0.0 0.00 0.53 0.53 100 1015.8
20260902021543 24 0 0.0 0.0 0.00 0.53 0.53 100 1015.7
20260902021025 24 0 0.0 0.0 0.00 0.53 0.53 100 1015.8
20260902020525 24 0 0.0 0.0 0.00 0.53 0.53 100 1015.8
20260902020043 25 0 0.0 0.0 0.00 0.53 0.53 99 1015.7
20260902015518 25 0 0.0 0.0 0.00 0.53 0.53 99 1015.7
20260902015020 25 0 0.0 0.0 0.00 0.53 0.53 99 1015.7
20260902014548 25 0 0.0 0.0 0.00 0.53 0.53 98 1015.8
20260902014019 25 0 0.0 0.0 0.00 0.53 0.53 99 1015.7
20260902013519 25 0 0.0 0.0 0.00 0.53 0.53 99 1015.6
20260902013037 25 0 0.0 0.0 0.00 0.53 0.53 98 1015.6
20260902012518 25 0 0.0 0.0 0.00 0.53 0.53 98 1015.5
20260902012021 25 0 0.0 0.0 0.00 0.53 0.53 98 1015.4
20260902011537 25 0 0.0 0.0 0.00 0.53 0.53 98 1015.3
20260902011024 25 0 0.0 0.0 0.00 0.53 0.53 98 1015.3
20260902010521 25 0 0.0 0.0 0.00 0.53 0.53 97 1015.2
20260902010034 25 0 0.0 0.0 0.00 0.53 0.53 97 1015.2
20260902005519 25 0 0.0 0.0 0.00 0.53 0.53 97 1015.2
20260902005020 25 0 0.0 0.0 0.00 0.53 0.53 96 1015.1
20260902004542 26 0 0.0 0.0 0.00 0.53 0.53 96 1015.1
20260902004022 26 0 0.0 0.0 0.00 0.53 0.53 96 1015.2
20260902003522 26 0 0.0 0.0 0.00 0.53 0.53 96 1015.2
20260902003040 26 0 0.0 0.0 0.00 0.53 0.53 95 1015.3
20260902002520 26 0 0.0 0.0 0.00 0.53 0.53 95 1015.4
20260902002019 26 0 0.0 0.0 0.00 0.53 0.53 94 1015.2
20260902001539 26 0 0.0 0.0 0.00 0.53 0.53 94 1015.2
20260902001020 26 0 0.0 1.6 0.00 0.53 0.53 93 1015.3
20260902000521 27 0 0.0 1.6 0.00 0.53 0.53 93 1015.2
20260902000044 27 0 0.0 4.8 0.00 0.53 0.53 93 1015.2
20260901235524 27 24 1.6 4.8 0.00 0.53 0.53 92 1015.3
20260901235020 27 0 0.0 0.0 0.00 0.53 0.53 92 1015.3
20260901234559 27 0 0.0 0.0 0.00 0.53 0.53 92 1015.4
20260901234020 27 0 0.0 0.0 0.00 0.53 0.53 91 1015.4
20260901233517 27 0 0.0 0.0 0.00 0.53 0.53 91 1015.3
20260901233049 27 0 0.0 0.0 0.00 0.53 0.53 90 1015.3
20260901232516 27 0 0.0 0.0 0.00 0.53 0.53 90 1015.1
20260901232022 27 0 0.0 1.6 0.00 0.53 0.53 89 1015.1
20260901231536 27 0 0.0 4.8 0.00 0.53 0.53 89 1015.1
20260901231019 27 0 0.0 4.8 0.00 0.53 0.53 89 1015.1
20260901230521 27 345 0.0 4.8 0.00 0.53 0.53 88 1015.1
20260901230037 27 0 0.0 3.2 0.00 0.53 0.53 88 1015.1
20260901225525 27 8 0.0 3.2 0.00 0.53 0.53 87 1015.1
20260901225021 28 0 0.0 1.6 0.00 0.53 0.53 87 1015.1
20260901224540 28 0 0.0 4.8 0.00 0.53 0.53 87 1015.1
20260901224020 28 52 0.0 6.4 0.00 0.53 0.53 87 1015.1
20260901223521 28 0 0.0 8.0 0.00 0.53 0.53 86 1015.0
20260901223037 28 343 1.6 11.3 0.00 0.53 0.53 85 1015.0
20260901222521 28 8 1.6 11.3 0.00 0.53 0.53 85 1014.9
20260901222019 28 335 1.6 9.7 0.00 0.53 0.53 85 1014.8
20260901221601 28 0 0.0 8.0 0.00 0.53 0.53 88 1014.7
20260901221020 28 0 0.0 8.0 0.00 0.53 0.53 88 1014.5
20260901220519 28 12 1.6 8.0 0.00 0.53 0.53 88 1014.5
20260901220042 28 356 1.6 9.7 0.00 0.53 0.53 88 1014.5
20260901215519 28 4 0.0 9.7 0.00 0.53 0.53 88 1014.4
20260901215022 28 0 1.6 8.0 0.00 0.53 0.53 87 1014.3
20260901214538 29 0 0.0 11.3 0.00 0.53 0.53 88 1014.2
20260901214025 29 0 1.6 11.3 0.00 0.53 0.53 87 1014.3
20260901213520 29 295 1.6 8.0 0.00 0.53 0.53 87 1014.4
20260901213039 29 41 1.6 8.0 0.00 0.53 0.53 86 1014.4
20260901212519 30 290 1.6 8.0 0.00 0.53 0.53 84 1014.5
20260901212024 30 313 1.6 8.0 0.00 0.53 0.53 84 1014.3
20260901211538 30 0 0.0 8.0 0.00 0.53 0.53 86 1014.3
20260901211022 30 341 1.6 8.0 0.00 0.53 0.53 84 1014.5
20260901210523 30 74 1.6 9.7 0.00 0.53 0.53 85 1014.4
20260901210040 30 341 1.6 12.9 0.00 0.53 0.53 84 1014.3
20260901205521 30 357 3.2 12.9 0.00 0.53 0.53 82 1014.4
20260901205019 30 342 3.2 11.3 0.00 0.53 0.53 81 1014.4
20260901204539 30 30 1.6 11.3 0.00 0.53 0.53 82 1014.4
20260901204019 30 75 1.6 11.3 0.00 0.53 0.53 81 1014.4
20260901203519 31 98 3.2 9.7 0.00 0.53 0.53 80 1014.6
20260901203049 31 60 0.0 9.7 0.00 0.53 0.53 79 1014.7
20260901202520 31 21 1.6 9.7 0.00 0.53 0.53 78 1014.7
20260901202030 32 320 1.6 9.7 0.00 0.53 0.53 77 1014.8
20260901201546 31 24 1.6 8.0 0.00 0.53 0.53 80 1014.7
20260901201021 31 0 1.6 9.7 0.00 0.53 0.53 82 1014.7
20260901200521 31 33 3.2 9.7 0.00 0.53 0.53 80 1014.8
20260901200040 30 0 0.0 6.4 0.00 0.53 0.53 81 1014.9
20260901195519 30 18 0.0 8.0 0.00 0.53 0.53 81 1014.9
20260901195022 30 0 3.2 8.0 0.00 0.53 0.53 80 1015.0
20260901194537 30 318 3.2 8.0 0.00 0.53 0.53 80 1015.0
20260901194023 30 0 0.0 8.0 0.00 0.53 0.53 80 1015.0
20260901193523 30 56 1.6 6.4 0.00 0.53 0.53 80 1014.9
20260901193038 30 60 0.0 6.4 0.00 0.53 0.53 82 1015.1
20260901192524 30 0 0.0 4.8 0.00 0.53 0.53 82 1015.2
20260901192028 31 0 0.0 8.0 0.00 0.53 0.53 82 1015.1
20260901191544 31 0 0.0 8.0 0.00 0.53 0.53 84 1015.1
20260901191019 31 46 0.0 8.0 0.00 0.53 0.53 80 1015.0
20260901190520 30 11 0.0 8.0 0.00 0.53 0.53 83 1015.1
20260901190044 30 29 1.6 6.4 0.00 0.53 0.53 82 1015.2
20260901185520 30 0 0.0 8.0 0.00 0.53 0.53 84 1015.2
20260901185020 30 0 0.0 8.0 0.00 0.53 0.53 87 1015.3
20260901184538 30 4 1.6 6.4 0.00 0.53 0.53 86 1015.4
20260901184019 29 0 0.0 1.6 0.00 0.53 0.53 89 1015.3
20260901183522 29 0 0.0 1.6 0.00 0.53 0.53 90 1015.3
20260901183039 29 0 0.0 1.6 0.00 0.53 0.53 93 1015.3
20260901182519 28 0 0.0 0.0 0.00 0.53 0.53 96 1015.4
20260901182024 28 0 0.0 0.0 0.00 0.53 0.53 96 1015.5
20260901181540 28 0 0.0 1.6 0.00 0.53 0.53 96 1015.5
20260901181020 28 0 0.0 1.6 0.00 0.53 0.53 98 1015.5
20260901180521 28 0 0.0 1.6 0.00 0.53 0.53 97 1015.6
20260901180037 28 0 0.0 1.6 0.00 0.53 0.53 98 1015.8
20260901175521 27 0 0.0 1.6 0.00 0.53 0.53 99 1015.9
20260901175020 27 0 0.0 0.0 0.00 0.53 0.53 98 1016.0
20260901174540 27 0 0.0 0.0 0.00 0.53 0.53 100 1016.1